Location: Unspecified
(0.0000°N, 0.0000°E)
Time: 19:09:01
(UTC+00:00)

A-11 Canister half - Pass Details

Date: 02 August 2021
Orbit: 1526 x 1683 km, 47.3° (Epoch: 26 September)

Event Time Altitude Azimuth Distance (km) Brightness Sun altitude
Rises 18:15:23 0° 340° (NNW) 4,781 12.2 -2.2°
Reaches altitude 10° 18:19:06 10° 351° (N) 3,773 11.4 -3.1°
Maximum altitude 18:27:00 29° 48° (NE) 2,533 9.9 -4.9°
Drops below altitude 10° 18:34:44 10° 105° (ESE) 3,701 10.3 -6.8°
Enters shadow 18:35:31 - 108° (ESE) 3,907 10.4 -7.0°
